Location: Newark
(23.3970°S, 47.6010°W)
Time: 15:27:52
(UTC+00:00)

Tiros 1 despin weight - Pass Details

Date: 18 February 2020
Orbit: 593 x 642 km, 48.2° (Epoch: 31 March)

Event Time Altitude Azimuth Distance (km) Brightness Sun altitude
Rises 16:18:15 0° 292° (WNW) 2,907 ? 72.6°
Reaches altitude 10° 16:20:47 10° 281° (W) 2,013 ? 72.2°
Maximum altitude 16:24:51 30° 219° (SW) 1,158 ? 71.4°
Drops below altitude 10° 16:28:59 10° 158° (SSE) 2,045 ? 70.7°
Sets 16:31:36 0° 147° (SSE) 2,962 ? 70.2°
